Location: D�derode
(51.8092°N, 10.1065°E)
Time: 07:03:49
(UTC+00:00)

SL-24 DEB - Pass Details

Date: 01 December 2020
Orbit: 664 x 701 km, 92.0° (Epoch: 23 January)

Event Time Altitude Azimuth Distance (km) Brightness Sun altitude
Rises 17:03:45 0° 8° (N) 3,092 7.4 -16.3°
Reaches altitude 10° 17:06:06 10° 13° (NNE) 2,166 6.6 -16.7°
Maximum altitude 17:10:46 51° 90° (E) 866 4.4 -17.4°
Drops below altitude 10° 17:15:21 10° 167° (SSE) 2,127 6.8 -18.1°
Sets 17:17:38 0° 172° (S) 3,032 7.7 -18.4°
